NUSAT-16 (LISE) (46840 NORAD) Tracking and Keplerian Element Data
This shows tracking and keplerian element data for the satellite.
Feedback or suggestion? Click here.
Element | Value |
Catalog | 46840 |
Name | NUSAT-16 (LISE) |
Epoch Orbit | 1118 |
Epoch Day | 18.2325306 |
Epoch Year | 2021 |
RAAN | 95.0216 |
Inclination | 97.2596 |
Eccentricity | 0.0007533 |
Argument of Perigee | 27.1191 |
Mean Anonmoly | 58.2832 |
Mean Motion | 15.31531019 |
Decay Rate | 1.76E-05 |
L1 | 1 46840U 20079P 21018.23253060 .00001760 00000-0 60234-4 0 9996 |
L2 | 2 46840 97.2596 95.0216 0007533 27.1191 58.2832 15.31531019 11182 |
Live tracking and technical data element details for NUSAT-16 (LISE) (NORAD 46840). NUSAT-16 (LISE) can be tracked NOW for your location showing map with azimuth and elevation plus other details from your city location.
Track the satellite on the map from your city or location and see movement details for azimuth, elevation, latitude, longitude, range, height, and movement on the map or in text.
IsCatalogInMostPopularTable: catalog: 46840, numindb: 28
Update: records affected: 1
GetName: 46840 NUSAT-16 (LISE)
Hit Count: updated at: Mon, 18 Jan 2021 15:46:53 GMT